This demonstration page uses our WeatherBlox Daily Observations layout. Learn more.

41.55636, -103.73856

Hourly Observations for July 29, 2016

Temp ( °F °C ) Dew Point ( °F °C ) Humidity (%) Winds ( mph kmh ) Pressure ( in mb ) Visibility ( mi km ) Precip ( " mm )
12:53 am 00:53 Clear 62 16.7 59 15 90 90 NE 5 7 30.07 1018 10 16.0934 0 0
1:53 am 01:53 Clear 61 16.1 58 14.4 90 90 S 3 6 30.07 1018 10 16.0934 0 0
2:53 am 02:53 Clear 60 15.6 57 13.9 90 90 ENE 6 9 30.04 1017 10 16.0934 0 0
3:53 am 03:53 Clear 60 15.6 57 13.9 90 90 NE 6 9 30.04 1017 10 16.0934 0 0
4:53 am 04:53 Mostly Clear 59 15 56 13.3 90 90 Calm 30.04 1017 10 16.0934 0 0
5:53 am 05:53 Sunny 58 14.4 56 13.3 93 93 Calm 30.03 1017 8 12.87472 0 0
6:53 am 06:53 Sunny 61 16.1 58 14.4 90 90 Calm 30.02 1017 10 16.0934 0 0
7:41 am 07:41 Mostly Sunny 62 16.7 59 15 90 90 S 3 6 30 1016 10 16.0934 0 0
7:53 am 07:53 Sunny 63 17.2 59 15 87 87 S 5 7 30.04 1017 10 16.0934 0 0
8:53 am 08:53 Sunny 69 20.6 60 15.6 73 73 ESE 3 6 30.03 1017 10 16.0934 0 0
9:53 am 09:53 Sunny 73 22.8 60 15.6 64 64 VRB 3 6 30.03 1017 10 16.0934 0 0
10:53 am 10:53 Sunny 77 25 58 14.4 52 52 ESE 8 13 30.01 1016 10 16.0934 0 0
11:53 am 11:53 Sunny 82 27.8 59 15 46 46 E 12 19 30 1016 10 16.0934 0 0
12:53 pm 12:53 Sunny 82 27.8 59 15 46 46 E 13 20 29.98 1015 10 16.0934 0 0
1:53 pm 13:53 Sunny 84 28.9 59 15 43 43 E 17 28 29.95 1014 10 16.0934 0 0
2:53 pm 14:53 Mostly Sunny 83 28.3 59 15 44 44 SE 14 22 29.91 1013 10 16.0934 0 0
3:53 pm 15:53 Mostly Sunny 81 27.2 61 16.1 51 51 E 14 22 29.92 1013 10 16.0934 0 0
4:16 pm 16:16 Partly Cloudy with Nearby Thunderstorms 82 28 61 16 48 48 E 16 26 29.74 1007 10 16.0934 0 0
4:31 pm 16:31 Mostly Sunny 80 26.7 61 16.1 52 52 ESE 17 28 29.77 1008 10 16.0934 0 0
4:44 pm 16:44 Partly Cloudy with Nearby Thunderstorms 79 26 61 16 54 54 E 15 24 29.77 1008 10 16.0934 0 0
4:53 pm 16:53 Mostly Cloudy with Nearby Thunderstorms 74 23.3 63 17.2 69 69 WSW 13 20 29.96 1015 4 6.43736 0.02 0.508
4:55 pm 16:55 Mostly Cloudy with Heavy Rain 73 22.8 61 16.1 66 66 WSW 8 13 29.88 1012 1.25 2.011675 0.01 0.254
5:06 pm 17:06 Mostly Cloudy with Light Thunderstorms 70 21 63 17 78 78 ESE 15 24 29.85 1011 2 3.21868 0 0
5:13 pm 17:13 Mostly Cloudy with Thunderstorms 69 20.6 63 17.2 81 81 ESE 16 26 29.91 1013 10 16.0934 0.23 5.842
5:24 pm 17:24 Mostly Cloudy with Nearby Thunderstorms 70 21 63 17 78 78 ESE 20 31 29.88 1012 10 16.0934 0 0
5:49 pm 17:49 Cloudy with Light Rain 64 18 61 16 88 88 SSE 24 39 29.88 1012 7 11.26538 0.24 6.096
5:53 pm 17:53 Cloudy with Light Rain 64 18 61 16 88 88 SSE 22 35 29.88 1012 8 12.87472 0 0
6:00 pm 18:00 Mostly Cloudy with Nearby Thunderstorms 66 19 61 16 83 83 SE 17 28 29.85 1011 10 16.0934 0 0
6:28 pm 18:28 Windy with Storms Likely 68 20 63 17 83 83 NNE 22 35 29.94 1014 10 16.0934 0 0
6:53 pm 18:53 Cloudy with Light Thunderstorms 64 18 N/A N/A VRB 5 7 30.04 1017 7 11.26538 0.02 0.508
7:16 pm 19:16 Mostly Cloudy with Light Thunderstorms 66 19 N/A N/A S 10 17 29.88 1012 8 12.87472 0.04 1.016
7:24 pm 19:24 Partly Cloudy with Light Rain 64 18 N/A N/A S 14 22 29.94 1014 10 16.0934 0 0
7:53 pm 19:53 Sunny 63 17 N/A N/A SE 10 17 29.96 1015 10 16.0934 0.04 1.016
8:53 pm 20:53 Clear 63 17 N/A N/A undefined N/A 29.96 1015 10 16.0934 0 0
9:53 pm 21:53 Clear 61 16.1 58 14.4 90 90 E 7 11 29.98 1015 10 16.0934 0 0
10:53 pm 22:53 Clear 61 16.1 56 13.3 84 84 ENE 5 7 29.99 1016 10 16.0934 0 0
11:53 pm 23:53 Mostly Clear 62 16.7 58 14.4 86 86 ESE 5 7 29.96 1015 10 16.0934 0 0

Powered by AerisWeather